Regional Weather Roundup
Issued by NWS

Home | Current Version | Previous Version | Graphics & Text | Print | Product List | Glossary On
Versions: 1 2 3 4 5 6 7 8 9 10 11 12 13 14 15 16 17 18 19 20 21 22 23 24 25 26 27 28 29 30 31 32 33 34 35 36 37 38 39 40 41 42 43 44 45 46 47 48 49 50
000
ASUS43 KBIS 161102
RWRND

NORTH DAKOTA REGIONAL WEATHER ROUNDUP
NATIONAL WEATHER SERVICE BISMARCK ND
600 AM CDT WED AUG 16 2017

NOTE: "FAIR" INDICATES FEW OR NO CLOUDS BELOW 12,000 FEET WITH NO
SIGNIFICANT WEATHER AND/OR OBSTRUCTIONS TO VISIBILITY.


NDZ001>003-009>011-017-161200-
NORTHWEST NORTH DAKOTA

CITY           SKY/WX    TMP DP  RH WIND       PRES   REMARKS
WILLISTON      CLEAR     55  53  93 N3        29.94R
MINOT          FOG       59  59 100 SE3       29.90S VSB 1/4
MINOT AFB      FOG       56  56 100 CALM      29.89R VSB 1/8
$$

NDZ018>021-031>035-040>046-161200-
SOUTHWEST NORTH DAKOTA

CITY           SKY/WX    TMP DP  RH WIND       PRES   REMARKS
BISMARCK       CLOUDY    61  60  97 N6        29.90R
DICKINSON      FOG       56  56 100 W5        29.94R VSB 1/4
GARRISON         N/A     56  56 100 NW7       29.91R
HETTINGER ARPT FOG       56  55  97 NW7       29.97R VSB 1/4
$$

NDZ004>008-012>016-024-026-027-054-161200-
NORTHEAST NORTH DAKOTA

CITY           SKY/WX    TMP DP  RH WIND       PRES   REMARKS
GRAND FORKS    CLOUDY    65  63  93 SE12      29.86S
GRND FRKS AFB  CLOUDY    64  62  94 SE7       29.86S
DEVILS LAKE    CLOUDY    62  61  96 NE8       29.87S
$$

NDZ022-023-025-028>030-036>039-047>053-161200-
SOUTHEAST NORTH DAKOTA

CITY           SKY/WX    TMP DP  RH WIND       PRES   REMARKS
FARGO          LGT RAIN  64  63  96 E7        29.86S
JAMESTOWN      CLOUDY    64  63  96 SE7       29.83R
$$




USA.gov is the U.S. government's official web portal to all federal, state and local government web resources and services.